GFSSGP_con_mucape_057.txt.gz
CAPE
0 0 0 0 0 0 0 0 0 0 0 0 0 0 0 0 0 0 28 482 381 1053 1195 1332 1722 1911 1836 1823 1761 1545 1599 1334 926 548 294 193 81 6 7 5 0 0 0 0 0 3 9 10 3
0 0 0 0 0 0 0 0 0 0 0 0 0 0 0 0 0 0 47 934 1061 1168 1231 1203 1481 1855 1972 1908 1828 1701 1445 1482 862 413 295 188 88 5 1 0 0 0 0 0 0 0 1 2 0
0 0 0 0 0 0 0 0 0 0 0 0 0 0 0 0 0 0 84 1117 1257 1343 1277 1105 1295 1402 1785 1898 1839 1761 1596 1592 1087 567 310 210 97 27 0 0 0 0 0 0 0 0 0 0 0
0 0 0 0 0 0 0 0 0 0 0 0 0 0 0 0 0 25 204 1096 1146 1337 1281 1157 1337 1716 1700 1840 1882 1692 1378 1313 1227 690 348 223 129 51 0 0 0 0 0 0 0 0 0 0 0
0 0 0 0 0 0 0 0 0 0 0 0 0 0 0 0 1 129 703 1125 1021 1288 1233 1166 1223 1569 1624 1740 1757 1621 1387 1243 1049 1004 374 237 153 65 0 0 0 0 0 0 0 0 0 0 0
0 0 0 0 0 0 0 0 0 0 0 0 0 0 0 0 31 448 1042 1032 910 1066 1125 1053 1021 1051 1219 1316 1391 1415 1416 1287 1104 926 535 342 227 105 22 0 0 0 0 0 0 0 0 0 0
0 0 0 0 0 0 0 0 0 0 0 0 0 0 0 0 47 625 1097 1021 1038 1049 1091 985 880 903 925 1008 905 969 950 1031 913 828 711 565 427 291 29 2 0 0 0 0 0 0 0 0 0
0 0 0 0 0 0 0 0 0 0 0 0 0 0 0 0 102 320 659 947 1048 1036 946 952 882 881 765 712 630 622 673 708 751 601 448 279 189 133 27 10 12 0 0 0 0 0 0 0 0
0 0 0 0 0 0 0 0 0 0 0 0 0 0 0 0 93 358 502 740 617 502 814 809 1029 998 894 1104 766 588 486 487 477 460 301 166 48 21 21 9 6 7 2 0 0 0 0 0 0
0 0 0 0 0 0 0 0 0 0 0 0 0 0 0 0 7 145 385 525 607 508 444 444 390 806 968 905 814 635 450 383 512 339 221 97 17 16 8 0 0 1 0 1 0 0 0 0 0
0 0 0 0 0 0 0 0 0 0 0 0 0 0 0 0 0 0 33 150 253 410 457 470 245 276 331 439 591 752 554 444 354 254 206 121 93 25 11 4 0 0 0 0 0 0 0 0 0
0 0 0 0 0 0 0 0 0 0 0 0 0 0 0 0 0 0 0 0 0 8 90 170 198 142 222 155 93 742 643 542 344 316 249 184 144 62 34 1 23 0 0 0 0 0 0 0 0
0 0 0 0 0 0 0 0 0 0 0 0 0 0 0 0 0 0 0 0 0 0 0 0 0 0 0 0 3 257 639 549 418 357 249 255 167 67 114 61 7 5 0 0 0 0 1 0 0
0 0 0 0 0 0 0 0 0 0 0 0 0 0 0 0 0 0 0 0 0 0 0 0 0 0 0 0 2 114 254 413 337 310 360 378 187 185 91 53 7 6 9 9 4 12 2 0 0
0 0 0 0 0 0 0 0 0 0 0 0 0 0 0 0 0 0 0 0 0 0 0 0 0 0 0 1 1 19 64 180 166 92 160 170 181 51 26 10 26 8 15 8 5 3 6 3 0
0 0 0 0 0 0 0 0 0 0 0 0 0 0 0 0 0 0 0 0 0 0 0 0 0 0 2 2 4 16 41 53 76 50 52 48 40 47 12 2 5 3 5 2 1 0 0 0 0
0 0 0 0 0 0 0 0 0 0 0 0 0 0 0 0 0 0 0 0 0 0 0 0 0 0 0 5 8 15 9 42 12 32 48 55 49 16 7 3 4 1 0 0 0 0 0 0 0
0 0 0 0 0 0 0 0 0 0 0 0 0 0 0 0 0 0 0 0 0 0 0 0 0 0 0 5 4 11 6 8 18 10 10 6 13 13 1 1 0 0 0 0 0 0 0 0 0
0 0 0 0 0 0 0 0 0 0 0 0 0 0 0 0 0 0 0 0 0 0 0 0 0 0 0 0 3 4 7 5 4 6 3 6 7 0 0 0 0 0 0 0 0 0 0 0 0
0 0 0 0 0 0 0 0 0 0 0 0 0 0 0 0 0 0 0 0 0 0 0 0 0 0 0 0 3 4 6 6 5 7 6 8 2 0 0 0 0 0 0 0 0 0 0 0 0
0 0 0 0 0 0 0 0 0 0 0 0 0 0 0 0 0 0 0 0 0 0 0 0 0 0 0 3 2 5 6 8 5 5 3 5 2 0 0 0 0 0 0 0 0 0 0 0 0
0 0 0 0 0 0 0 0 0 0 0 0 0 0 0 0 0 0 0 0 0 0 0 0 0 0 0 0 10 3 4 3 3 5 3 7 0 0 0 0 0 0 0 0 0 0 0 0 0
0 0 0 0 0 0 0 0 0 0 0 0 0 0 0 0 0 0 0 0 0 0 0 0 0 0 0 0 3 8 9 8 4 5 6 5 0 0 0 0 0 0 0 0 0 0 0 0 0
0 0 0 0 0 0 0 0 0 0 0 0 0 0 0 0 0 0 0 0 0 0 0 0 0 0 0 0 0 5 3 7 4 3 5 3 0 0 0 0 0 0 0 0 0 0 0 0 0
0 0 0 0 0 0 0 0 0 0 0 0 0 0 0 0 0 0 0 0 0 0 0 0 0 0 0 0 0 3 6 1 6 2 3 0 0 0 0 0 0 0 0 0 0 0 0 0 0
0 0 0 0 0 0 0 0 0 0 0 0 0 0 0 0 0 0 0 0 0 0 0 0 0 0 0 0 7 5 5 1 7 4 4 0 0 0 0 0 0 0 0 0 0 0 0 0 0
0 0 0 0 0 0 0 0 0 0 0 0 0 0 0 0 0 0 0 0 0 0 0 0 0 0 0 0 0 4 3 3 5 8 0 0 0 0 0 0 0 0 0 0 0 0 0 0 0
0 0 0 0 0 0 0 0 0 0 0 0 0 0 0 0 0 0 0 0 0 0 0 0 0 0 0 0 0 2 4 6 7 4 0 0 0 0 0 0 0 0 0 0 0 0 0 0 0
0 0 0 0 0 0 0 0 0 0 0 0 0 0 0 0 0 0 0 0 0 0 0 0 0 0 0 0 0 2 4 3 3 0 0 0 0 0 0 0 0 0 0 0 0 0 0 0 0
0 0 0 0 0 0 0 0 0 0 0 0 0 0 0 0 0 0 0 0 0 0 0 0 0 0 0 0 0 0 2 2 0 0 0 0 0 0 0 0 0 0 0 0 0 0 0 0 0

GFSSGP_con_mucape_060.txt.gz
CAPE
0 0 0 0 0 0 0 0 0 0 0 0 0 0 0 0 0 0 333 435 670 829 913 996 1458 1713 1699 1881 1744 1709 1548 1024 542 291 167 49 22 24 3 1 0 0 0 2 11 27 8 72 18
0 0 0 0 0 0 0 0 0 0 0 0 0 0 0 0 0 0 136 602 733 966 1068 1107 1219 1578 1809 1807 1455 1756 1545 1082 537 322 204 82 23 0 0 0 0 0 0 0 3 15 1 25 5
0 0 0 0 0 0 0 0 0 0 0 0 0 0 0 0 0 0 44 877 982 1067 1061 1096 1302 1632 1559 1731 1779 1629 1538 1103 535 365 230 114 29 0 0 0 0 0 0 0 0 0 4 3 2
0 0 0 0 0 0 0 0 0 0 0 0 0 0 0 0 0 0 561 1021 1019 1095 937 994 1284 1782 1677 1821 1625 1438 1375 1236 590 392 279 170 80 17 0 0 0 0 0 0 0 0 0 0 0
0 0 0 0 0 0 0 0 0 0 0 0 0 0 0 0 0 2 548 970 964 1097 901 914 1005 1350 1602 1752 1532 1426 1376 1286 963 494 296 179 85 15 0 0 0 0 0 0 0 0 0 0 0
0 0 0 0 0 0 0 0 0 0 0 0 0 0 0 0 2 113 766 930 852 1003 934 873 916 1000 1150 1363 1465 1356 1027 1091 1038 653 328 217 88 5 0 0 0 0 0 0 0 0 0 0 0
0 0 0 0 0 0 0 0 0 0 0 0 0 0 0 0 81 374 877 880 852 937 935 838 768 876 991 1007 1065 1051 1021 1008 933 855 649 479 262 107 3 0 0 0 0 0 0 0 0 0 0
0 0 0 0 0 0 0 0 0 0 0 0 0 0 0 0 121 642 946 874 788 856 916 805 658 664 698 730 686 699 655 668 692 561 358 213 96 15 0 0 0 0 0 0 0 0 0 0 0
0 0 0 0 0 0 0 0 0 0 0 0 0 0 0 0 56 481 900 826 851 879 869 835 737 729 624 617 524 503 543 575 518 443 213 109 46 14 2 0 0 0 0 0 0 0 0 0 0
0 0 0 0 0 0 0 0 0 0 0 0 0 0 0 0 16 226 521 779 827 806 501 772 608 819 829 750 614 541 413 393 422 322 189 39 8 11 14 0 0 0 0 0 0 0 0 0 0
0 0 0 0 0 0 0 0 0 0 0 0 0 0 0 0 6 130 251 437 590 448 254 355 342 277 812 853 816 672 460 314 264 209 172 62 111 21 16 5 6 0 0 0 0 0 0 0 0
0 0 0 0 0 0 0 0 0 0 0 0 0 0 0 0 0 15 132 254 365 440 373 57 269 200 104 465 471 605 621 391 226 185 159 116 35 38 14 15 4 4 0 0 0 0 0 0 0
0 0 0 0 0 0 0 0 0 0 0 0 0 0 0 0 0 0 0 2 22 48 142 205 213 208 45 175 117 121 660 538 306 265 197 136 68 36 32 18 18 37 0 0 0 0 1 0 0
0 0 0 0 0 0 0 0 0 0 0 0 0 0 0 0 0 0 0 0 0 0 0 0 0 1 12 110 132 0 444 621 380 245 234 131 106 69 29 18 18 4 5 21 10 18 12 0 2
0 0 0 0 0 0 0 0 0 0 0 0 0 0 0 0 0 0 0 0 0 0 0 0 0 0 0 0 1 0 24 355 415 407 292 206 175 123 48 43 28 6 22 19 16 4 4 4 0
0 0 0 0 0 0 0 0 0 0 0 0 0 0 0 0 0 0 0 0 0 0 0 0 0 0 0 3 2 4 6 28 168 230 222 184 132 142 72 59 11 10 10 14 5 3 0 0 0
0 0 0 0 0 0 0 0 0 0 0 0 0 0 0 0 0 0 0 0 0 0 0 0 0 0 0 2 2 5 10 38 68 80 67 65 64 42 43 39 16 18 16 3 1 0 0 0 0
0 0 0 0 0 0 0 0 0 0 0 0 0 0 0 0 0 0 0 0 0 0 0 0 0 0 0 0 2 9 23 31 13 57 70 75 59 31 22 4 6 11 1 0 0 0 0 0 0
0 0 0 0 0 0 0 0 0 0 0 0 0 0 0 0 0 0 0 0 0 0 0 0 0 0 0 0 4 4 14 35 6 50 44 57 38 22 0 10 4 0 0 0 0 0 0 0 0
0 0 0 0 0 0 0 0 0 0 0 0 0 0 0 0 0 0 0 0 0 0 0 0 0 0 0 0 2 0 1 14 21 15 35 8 6 7 12 4 0 0 0 0 0 0 0 0 0
0 0 0 0 0 0 0 0 0 0 0 0 0 0 0 0 0 0 0 0 0 0 0 0 0 0 0 0 0 3 9 15 8 19 6 3 5 11 1 0 0 0 0 0 0 0 0 0 0
0 0 0 0 0 0 0 0 0 0 0 0 0 0 0 0 0 0 0 0 0 0 0 0 0 0 0 0 0 0 0 0 1 8 3 9 6 14 0 0 0 0 0 0 0 0 0 0 0
0 0 0 0 0 0 0 0 0 0 0 0 0 0 0 0 0 0 0 0 0 0 0 0 0 0 0 0 0 0 0 0 8 8 2 6 5 7 0 0 0 0 0 0 0 0 0 0 0
0 0 0 0 0 0 0 0 0 0 0 0 0 0 0 0 0 0 0 0 0 0 0 0 0 0 0 0 0 3 5 0 7 4 4 6 9 9 0 0 0 0 0 0 0 0 0 0 0
0 0 0 0 0 0 0 0 0 0 0 0 0 0 0 0 0 0 0 0 0 0 0 0 0 0 0 0 0 0 0 4 6 4 6 6 4 3 0 0 0 0 0 0 0 0 0 0 0
0 0 0 0 0 0 0 0 0 0 0 0 0 0 0 0 0 0 0 0 0 0 0 0 0 0 0 0 0 0 0 11 3 3 5 6 6 6 0 0 0 0 0 0 0 0 0 0 0
0 0 0 0 0 0 0 0 0 0 0 0 0 0 0 0 0 0 0 0 0 0 0 0 0 0 0 0 0 0 0 0 5 7 6 8 12 12 0 0 0 0 0 0 0 0 0 0 0
0 0 0 0 0 0 0 0 0 0 0 0 0 0 0 0 0 0 0 0 0 0 0 0 0 0 0 0 0 0 0 1 6 5 8 7 10 7 0 0 0 0 0 0 0 0 0 0 0
0 0 0 0 0 0 0 0 0 0 0 0 0 0 0 0 0 0 0 0 0 0 0 0 0 0 0 0 0 0 0 0 8 8 7 7 9 1 0 0 0 0 0 0 0 0 0 0 0
0 0 0 0 0 0 0 0 0 0 0 0 0 0 0 0 0 0 0 0 0 0 0 0 0 0 0 0 0 0 0 0 4 5 6 8 6 0 0 0 0 0 0 0 0 0 0 0 0

GFSSGP_con_mucape_063.txt.gz
CAPE
0 0 0 0 0 0 0 0 0 0 0 0 0 0 0 0 0 0 293 354 522 768 794 1085 1533 1825 1861 1514 1353 1259 1036 457 223 106 35 17 8 0 0 0 1 3 14 34 7 112 44 7 9
0 0 0 0 0 0 0 0 0 0 0 0 0 0 0 0 0 103 340 388 730 902 937 1221 1343 1773 1819 1397 1138 1356 1050 729 261 155 56 0 0 0 0 0 0 0 6 17 19 43 8 9 2
0 0 0 0 0 0 0 0 0 0 0 0 0 0 0 0 0 109 19 341 875 1010 988 1004 1239 1574 1613 1581 1384 1401 1128 791 331 210 104 20 0 0 0 0 0 0 0 5 15 13 8 0 0
0 0 0 0 0 0 0 0 0 0 0 0 0 0 0 0 0 0 558 671 965 1025 964 916 1217 1619 1614 1575 1471 1475 1212 850 399 240 128 71 19 0 0 0 0 0 0 0 4 6 0 0 0
0 0 0 0 0 0 0 0 0 0 0 0 0 0 0 0 0 16 776 868 984 982 876 1065 1186 1265 1635 1636 1485 1452 1285 944 538 303 171 78 8 1 0 0 0 0 0 0 0 0 0 0 0
0 0 0 0 0 0 0 0 0 0 0 0 0 0 0 0 0 12 838 810 931 941 810 886 998 1151 1333 1465 1304 1264 1050 1027 796 412 206 79 0 0 0 0 0 0 0 0 0 0 0 0 0
0 0 0 0 0 0 0 0 0 0 0 0 0 0 0 0 4 204 844 797 829 816 805 826 763 761 832 932 994 1006 985 939 824 667 515 259 123 52 0 0 0 0 0 0 0 0 0 0 0
0 0 0 0 0 0 0 0 0 0 0 0 0 0 0 0 59 464 817 801 811 832 733 636 592 748 887 900 785 747 707 713 666 456 197 29 0 0 0 0 0 0 0 0 0 0 0 0 0
0 0 0 0 0 0 0 0 0 0 0 0 0 0 0 0 135 535 746 738 720 777 804 693 567 544 638 673 583 581 554 553 447 247 91 12 0 0 0 0 0 0 0 0 0 0 0 0 0
0 0 0 0 0 0 0 0 0 0 0 0 0 0 0 0 112 499 692 705 616 653 760 773 639 609 538 574 513 503 472 468 381 260 70 43 13 11 0 0 0 0 0 0 0 0 0 0 0
0 0 0 0 0 0 0 0 0 0 0 0 0 0 0 0 8 332 597 661 617 670 732 635 688 572 674 655 546 455 430 509 539 237 110 23 13 8 0 2 1 0 0 0 0 0 0 0 0
0 0 0 0 0 0 0 0 0 0 0 0 0 0 0 0 0 46 320 506 542 682 548 275 443 367 264 664 698 647 567 267 195 133 89 36 21 16 9 6 6 4 1 0 0 0 0 0 0
0 0 0 0 0 0 0 0 0 0 0 0 0 0 0 0 0 0 14 142 358 437 443 356 55 84 164 129 424 468 504 510 193 131 126 50 39 25 16 10 16 16 6 1 0 0 0 0 0
0 0 0 0 0 0 0 0 0 0 0 0 0 0 0 0 0 0 0 12 65 177 280 285 234 96 25 108 25 95 79 447 409 191 128 103 54 46 38 39 38 8 9 6 1 4 6 2 0
0 0 0 0 0 0 0 0 0 0 0 0 0 0 0 0 0 0 0 0 0 0 1 3 4 12 51 70 5 11 2 106 449 287 135 115 75 62 55 47 26 17 8 9 2 7 6 4 0
0 0 0 0 0 0 0 0 0 0 0 0 0 0 0 0 0 0 0 0 0 0 0 0 0 0 0 0 0 0 33 7 294 421 170 132 107 103 77 50 16 6 20 14 5 6 5 0 0
0 0 0 0 0 0 0 0 0 0 0 0 0 0 0 0 0 0 0 0 0 0 0 0 0 0 0 0 0 1 2 4 31 171 218 237 196 88 83 67 44 53 13 10 14 4 2 0 0
0 0 0 0 0 0 0 0 0 0 0 0 0 0 0 0 0 0 0 0 0 0 0 0 0 0 0 0 0 2 4 10 22 32 75 92 96 82 78 76 34 13 17 8 4 3 0 1 0
0 0 0 0 0 0 0 0 0 0 0 0 0 0 0 0 0 0 0 0 0 0 0 0 0 0 0 0 0 0 0 13 20 41 56 63 78 74 68 40 12 7 3 16 2 0 0 0 0
0 0 0 0 0 0 0 0 0 0 0 0 0 0 0 0 0 0 0 0 0 0 0 0 0 0 0 0 0 0 1 7 14 4 1 21 73 68 48 30 14 9 8 0 0 0 0 0 0
0 0 0 0 0 0 0 0 0 0 0 0 0 0 0 0 0 0 0 0 0 0 0 0 0 0 0 0 0 0 3 4 4 8 7 44 27 37 17 4 6 7 3 0 0 0 0 0 0
0 0 0 0 0 0 0 0 0 0 0 0 0 0 0 0 0 0 0 0 0 0 0 0 0 0 0 0 0 0 0 0 1 6 8 32 43 9 10 7 4 8 0 0 0 0 0 0 0
0 0 0 0 0 0 0 0 0 0 0 0 0 0 0 0 0 0 0 0 0 0 0 0 0 0 0 0 0 0 0 0 0 3 9 36 5 7 5 7 5 0 0 0 0 0 0 0 0
0 0 0 0 0 0 0 0 0 0 0 0 0 0 0 0 0 0 0 0 0 0 0 0 0 0 0 0 0 0 0 0 0 6 10 26 7 6 2 12 2 0 0 0 0 0 0 0 0
0 0 0 0 0 0 0 0 0 0 0 0 0 0 0 0 0 0 0 0 0 0 0 0 0 0 0 0 0 0 0 0 0 4 5 14 4 6 5 8 2 0 0 0 0 0 0 0 0
0 0 0 0 0 0 0 0 0 0 0 0 0 0 0 0 0 0 0 0 0 0 0 0 0 0 0 0 0 0 0 0 0 1 5 17 7 10 6 13 0 0 0 0 0 0 0 0 0
0 0 0 0 0 0 0 0 0 0 0 0 0 0 0 0 0 0 0 0 0 0 0 0 0 0 0 0 0 0 0 0 0 3 15 8 8 5 8 12 0 0 0 0 0 0 0 0 0
0 0 0 0 0 0 0 0 0 0 0 0 0 0 0 0 0 0 0 0 0 0 0 0 0 0 0 0 0 0 0 0 0 0 0 0 5 8 5 10 3 0 0 0 0 0 0 0 0
0 0 0 0 0 0 0 0 0 0 0 0 0 0 0 0 0 0 0 0 0 0 0 0 0 0 0 0 0 0 0 0 0 0 0 1 6 6 4 9 7 0 0 0 0 0 0 0 0
0 0 0 0 0 0 0 0 0 0 0 0 0 0 0 0 0 0 0 0 0 0 0 0 0 0 0 0 0 0 0 0 0 0 0 5 10 7 8 9 7 0 0 0 0 0 0 0 0

GFSSGP_con_mucape_069.txt.gz
CAPE
0 0 0 0 0 0 0 0 0 0 0 0 0 0 0 0 0 5 451 761 659 539 421 421 1106 1156 1127 1206 1119 808 532 156 98 32 18 3 5 6 9 20 233 229 193 62 32 12 12 4 2
0 0 0 0 0 0 0 0 0 0 0 0 0 0 0 0 0 204 689 785 738 666 686 527 946 1374 1144 1262 1071 841 477 134 46 15 0 0 0 1 7 16 79 198 136 92 38 11 6 3 5
0 0 0 0 0 0 0 0 0 0 0 0 0 0 0 0 4 400 784 806 881 785 762 970 1087 1549 1238 1228 1163 903 634 211 44 11 0 0 0 0 1 7 16 126 114 33 17 9 5 6 7
0 0 0 0 0 0 0 0 0 0 0 0 0 0 0 0 262 346 812 832 878 798 835 814 1399 1574 1255 1202 1148 977 623 248 139 48 1 0 0 0 0 3 5 18 19 12 2 3 2 1 1
0 0 0 0 0 0 0 0 0 0 0 0 0 0 0 0 17 330 805 800 906 1056 1023 935 1375 1404 1380 1246 1213 1017 765 394 212 88 2 0 0 0 0 0 4 13 3 0 0 0 0 1 0
0 0 0 0 0 0 0 0 0 0 0 0 0 0 0 0 36 399 795 820 869 791 948 708 976 1125 1049 1130 1034 990 828 597 307 86 2 0 0 0 0 0 1 2 0 0 0 0 0 1 0
0 0 0 0 0 0 0 0 0 0 0 0 0 0 0 0 0 312 662 810 836 850 823 651 663 760 816 770 639 645 653 606 446 286 120 0 0 0 0 0 0 0 0 0 0 0 1 1 0
0 0 0 0 0 0 0 0 0 0 0 0 0 0 0 0 6 270 581 744 759 741 825 729 772 669 742 927 598 569 490 439 366 133 0 0 0 0 0 0 0 0 0 0 0 0 4 0 0
0 0 0 0 0 0 0 0 0 0 0 0 0 0 0 0 35 344 517 635 620 832 1132 899 954 663 689 762 753 540 439 334 102 0 0 0 0 0 0 0 0 0 0 0 0 1 1 0 0
0 0 0 0 0 0 0 0 0 0 0 0 0 0 0 0 53 280 387 639 857 896 905 827 838 760 819 774 833 778 692 564 183 0 1 20 9 1 0 0 0 0 0 0 0 0 0 0 0
0 0 0 0 0 0 0 0 0 0 0 0 0 0 0 0 25 113 235 311 523 751 923 791 779 1053 942 805 949 1012 957 897 634 141 43 128 11 0 0 0 0 0 0 0 0 0 0 0 0
0 0 0 0 0 0 0 0 0 0 0 0 0 0 0 0 0 40 139 188 310 496 624 866 926 975 960 1006 907 933 893 801 751 574 234 105 4 5 1 0 0 2 1 0 0 0 0 0 0
0 0 0 0 0 0 0 0 0 0 0 0 0 0 0 0 0 0 25 106 230 365 468 644 806 863 835 951 832 889 793 959 814 755 522 234 2 20 14 1 4 2 2 1 1 0 0 0 0
0 0 0 0 0 0 0 0 0 0 0 0 0 0 0 0 0 0 0 34 149 333 404 462 677 455 335 509 576 667 822 795 860 700 645 389 54 21 9 5 2 2 2 4 3 0 0 0 0
0 0 0 0 0 0 0 0 0 0 0 0 0 0 0 0 0 0 0 0 117 316 268 393 338 356 292 130 328 428 591 580 863 784 707 493 184 1 7 13 7 6 10 13 20 0 0 0 1
0 0 0 0 0 0 0 0 0 0 0 0 0 0 0 0 0 0 0 0 3 147 162 216 34 173 165 67 108 161 341 420 569 679 698 585 339 25 13 24 29 27 6 11 17 12 1 0 2
0 0 0 0 0 0 0 0 0 0 0 0 0 0 0 0 0 0 0 0 0 0 38 111 0 62 168 143 67 9 84 241 358 454 540 627 376 124 24 37 48 50 19 7 3 8 17 0 1
0 0 0 0 0 0 0 0 0 0 0 0 0 0 0 0 0 0 0 0 0 0 0 0 0 0 64 101 72 6 3 10 54 187 112 194 252 72 60 41 53 64 58 22 8 4 13 0 2
0 0 0 0 0 0 0 0 0 0 0 0 0 0 0 0 0 0 0 0 0 0 0 0 0 0 0 0 0 0 0 1 0 4 0 6 173 60 27 42 50 55 60 36 11 3 18 2 0
0 0 0 0 0 0 0 0 0 0 0 0 0 0 0 0 0 0 0 0 0 0 0 0 0 0 0 0 0 0 0 0 0 0 0 0 0 38 78 46 53 55 52 27 17 16 10 5 0
0 0 0 0 0 0 0 0 0 0 0 0 0 0 0 0 0 0 0 0 0 0 0 0 0 0 0 0 0 0 0 0 0 0 0 0 0 9 92 55 62 50 48 21 16 14 10 1 5
0 0 0 0 0 0 0 0 0 0 0 0 0 0 0 0 0 0 0 0 0 0 0 0 0 0 0 0 0 0 0 0 0 0 0 0 0 8 14 18 42 48 37 42 26 16 11 37 6
0 0 0 0 0 0 0 0 0 0 0 0 0 0 0 0 0 0 0 0 0 0 0 0 0 0 0 0 0 0 0 0 0 0 0 0 2 7 5 23 3 16 53 47 56 31 20 5 22
0 0 0 0 0 0 0 0 0 0 0 0 0 0 0 0 0 0 0 0 0 0 0 0 0 0 0 0 0 0 0 0 0 0 0 0 0 3 5 9 19 18 7 10 14 19 11 12 15
0 0 0 0 0 0 0 0 0 0 0 0 0 0 0 0 0 0 0 0 0 0 0 0 0 0 0 0 0 0 0 0 0 0 0 0 1 0 3 5 24 3 6 14 65 14 2 6 13
0 0 0 0 0 0 0 0 0 0 0 0 0 0 0 0 0 0 0 0 0 0 0 0 0 0 0 0 0 0 0 0 0 0 0 0 0 0 2 16 7 5 20 50 27 13 11 7 9
0 0 0 0 0 0 0 0 0 0 0 0 0 0 0 0 0 0 0 0 0 0 0 0 0 0 0 0 0 0 0 0 0 0 0 0 0 1 0 6 10 35 39 45 15 11 12 14 7
0 0 0 0 0 0 0 0 0 0 0 0 0 0 0 0 0 0 0 0 0 0 0 0 0 0 0 0 0 0 0 0 0 0 0 0 0 0 0 4 10 33 50 36 25 15 11 7 11
0 0 0 0 0 0 0 0 0 0 0 0 0 0 0 0 0 0 0 0 0 0 0 0 0 0 0 0 0 0 0 0 0 0 0 0 0 0 0 5 21 27 47 47 14 29 21 12 8
0 0 0 0 0 0 0 0 0 0 0 0 0 0 0 0 0 0 0 0 0 0 0 0 0 0 0 0 0 0 0 0 0 0 0 0 0 0 0 7 10 18 34 33 41 20 15 15 10

GFSSGP_con_mucape_072.txt.gz
CAPE
0 0 0 0 0 0 0 0 0 0 0 0 0 0 0 0 0 109 263 244 227 405 313 606 1108 1084 894 1191 859 624 361 100 48 19 12 9 8 29 43 78 322 332 50 23 13 8 6 3 0
0 0 0 0 0 0 0 0 0 0 0 0 0 0 0 0 88 228 544 656 469 384 201 494 973 1192 1102 1201 892 560 340 70 13 7 2 3 4 19 35 107 442 164 39 17 13 10 7 1 0
0 0 0 0 0 0 0 0 0 0 0 0 0 0 0 0 187 585 732 705 507 486 548 652 1005 1364 1220 1138 935 637 355 107 1 0 0 0 1 6 7 119 146 28 8 16 12 6 4 0 0
0 0 0 0 0 0 0 0 0 0 0 0 0 0 0 0 262 664 650 702 614 629 666 693 1238 1433 1210 1228 1042 753 371 57 21 0 0 0 0 5 6 13 9 3 9 8 5 4 3 0 0
0 0 0 0 0 0 0 0 0 0 0 0 0 0 0 64 257 698 679 724 691 718 883 937 1299 1297 1208 1157 1084 828 599 246 80 0 0 0 0 3 5 11 0 1 3 2 1 2 0 0 0
0 0 0 0 0 0 0 0 0 0 0 0 0 0 0 0 68 682 686 749 609 1118 1000 928 1121 994 967 979 973 855 707 475 151 1 0 0 0 0 3 7 1 0 0 0 1 1 0 0 0
0 0 0 0 0 0 0 0 0 0 0 0 0 0 0 0 100 659 663 666 669 757 807 800 943 800 764 654 689 725 628 443 279 80 0 0 0 1 5 6 0 0 0 0 3 1 0 0 0
0 0 0 0 0 0 0 0 0 0 0 0 0 0 0 0 18 488 595 626 696 673 597 475 578 763 674 590 449 422 339 244 186 8 0 0 0 0 0 0 0 0 0 0 4 1 1 0 0
0 0 0 0 0 0 0 0 0 0 0 0 0 0 0 0 10 254 415 518 650 646 847 570 555 635 694 634 412 353 285 163 0 0 0 0 0 0 0 0 0 0 0 3 4 0 0 0 0
0 0 0 0 0 0 0 0 0 0 0 0 0 0 0 0 7 181 376 496 520 569 621 1060 779 608 548 645 498 380 283 105 0 0 0 0 0 0 0 0 0 0 0 0 0 0 0 0 0
0 0 0 0 0 0 0 0 0 0 0 0 0 0 0 0 1 148 258 387 415 392 681 787 962 874 1029 639 513 523 358 190 5 0 0 3 0 0 0 0 0 0 0 0 0 0 0 0 0
0 0 0 0 0 0 0 0 0 0 0 0 0 0 0 0 0 28 166 240 505 597 552 572 769 688 711 563 590 547 508 359 151 4 0 0 0 2 0 0 0 0 0 0 0 0 0 0 0
0 0 0 0 0 0 0 0 0 0 0 0 0 0 0 0 0 0 25 112 211 428 632 481 755 865 825 740 621 598 547 387 256 130 12 2 0 0 0 1 2 0 2 1 0 0 0 0 0
0 0 0 0 0 0 0 0 0 0 0 0 0 0 0 0 0 0 0 54 123 272 409 583 459 570 763 730 655 630 631 524 392 299 119 42 0 0 0 0 3 3 1 0 1 3 0 0 0
0 0 0 0 0 0 0 0 0 0 0 0 0 0 0 0 0 0 0 0 39 185 322 469 508 447 715 714 704 644 574 627 480 455 300 113 19 0 0 0 0 2 3 4 2 7 8 2 0
0 0 0 0 0 0 0 0 0 0 0 0 0 0 0 0 0 0 0 0 0 49 293 384 448 531 587 526 459 423 357 404 545 485 355 219 140 2 0 0 0 6 14 7 4 7 8 14 10
0 0 0 0 0 0 0 0 0 0 0 0 0 0 0 0 0 0 0 0 0 4 195 274 313 419 404 346 289 189 188 243 332 456 420 355 168 146 164 0 5 8 17 23 22 4 18 14 10
0 0 0 0 0 0 0 0 0 0 0 0 0 0 0 0 0 0 0 0 0 0 24 148 210 236 163 144 120 52 107 53 135 173 268 434 295 160 152 272 9 24 33 32 18 21 16 13 12
0 0 0 0 0 0 0 0 0 0 0 0 0 0 0 0 0 0 0 0 0 0 0 22 77 95 2 0 16 7 0 0 3 3 49 151 302 265 290 135 68 25 35 39 17 32 31 6 11
0 0 0 0 0 0 0 0 0 0 0 0 0 0 0 0 0 0 0 0 0 0 0 0 4 14 0 0 0 0 0 0 0 0 2 5 85 145 127 94 19 14 35 51 49 44 37 17 4
0 0 0 0 0 0 0 0 0 0 0 0 0 0 0 0 0 0 0 0 0 0 0 0 0 0 0 0 0 0 0 0 0 0 0 6 38 184 69 126 55 11 34 45 35 13 18 33 10
0 0 0 0 0 0 0 0 0 0 0 0 0 0 0 0 0 0 0 0 0 0 0 0 0 0 0 0 0 0 0 0 0 0 0 0 1 9 75 23 12 9 21 32 45 38 27 6 7
0 0 0 0 0 0 0 0 0 0 0 0 0 0 0 0 0 0 0 0 0 0 0 0 0 0 0 0 0 0 0 0 0 0 0 0 0 3 9 10 8 18 16 10 35 26 30 22 16
0 0 0 0 0 0 0 0 0 0 0 0 0 0 0 0 0 0 0 0 0 0 0 0 0 0 0 0 0 0 0 0 0 0 0 0 0 0 2 4 6 28 13 11 7 22 43 20 32
0 0 0 0 0 0 0 0 0 0 0 0 0 0 0 0 0 0 0 0 0 0 0 0 0 0 0 0 0 0 0 0 0 0 0 0 0 0 0 1 0 7 8 2 12 5 71 14 13
0 0 0 0 0 0 0 0 0 0 0 0 0 0 0 0 0 0 0 0 0 0 0 0 0 0 0 0 0 0 0 0 0 0 0 0 0 0 0 0 1 6 9 15 3 35 56 14 13
0 0 0 0 0 0 0 0 0 0 0 0 0 0 0 0 0 0 0 0 0 0 0 0 0 0 0 0 0 0 0 0 0 0 0 0 0 0 0 0 3 6 6 10 18 25 6 30 23
0 0 0 0 0 0 0 0 0 0 0 0 0 0 0 0 0 0 0 0 0 0 0 0 0 0 0 0 0 0 0 0 0 0 0 0 0 0 0 0 0 0 4 16 17 17 11 27 59
0 0 0 0 0 0 0 0 0 0 0 0 0 0 0 0 0 0 0 0 0 0 0 0 0 0 0 0 0 0 0 0 0 0 0 0 0 0 0 0 0 2 5 13 10 16 9 18 21
0 0 0 0 0 0 0 0 0 0 0 0 0 0 0 0 0 0 0 0 0 0 0 0 0 0 0 0 0 0 0 0 0 0 0 0 0 0 0 0 0 0 0 13 8 15 9 3 26

GFSSGP_con_mucape_075.txt.gz
CAPE
0 0 0 0 0 0 0 0 0 0 0 0 0 0 0 0 6 28 156 10 176 159 414 761 967 1120 1206 1033 723 418 219 43 19 8 6 38 64 64 329 127 231 36 9 10 7 3 1 3 35
0 0 0 0 0 0 0 0 0 0 0 0 0 0 0 21 77 222 97 128 332 226 353 750 874 1235 1204 968 673 397 233 43 6 2 7 18 39 42 348 142 113 10 7 9 6 3 1 7 20
0 0 0 0 0 0 0 0 0 0 0 0 0 0 0 27 233 407 617 552 462 262 290 625 873 1238 1206 928 646 393 183 52 0 0 1 10 23 127 281 42 1 1 7 6 3 6 3 7 27
0 0 0 0 0 0 0 0 0 0 0 0 0 0 0 47 461 624 637 533 416 349 517 671 1079 1267 1224 951 654 357 128 1 0 0 0 4 11 46 49 4 0 5 5 3 3 6 3 5 38
0 0 0 0 0 0 0 0 0 0 0 0 0 0 0 487 480 661 668 636 577 591 484 742 1062 1147 1173 1039 767 509 261 9 0 0 0 2 4 10 8 1 0 5 3 3 2 4 0 0 23
0 0 0 0 0 0 0 0 0 0 0 0 0 0 0 270 655 661 694 594 725 634 768 851 957 922 923 978 829 647 416 151 0 0 0 0 1 5 5 0 0 2 3 3 2 1 0 4 15
0 0 0 0 0 0 0 0 0 0 0 0 0 0 0 1 612 677 681 816 846 766 854 866 770 687 733 709 582 528 418 234 23 0 0 0 4 10 2 2 0 2 4 4 2 2 1 6 8
0 0 0 0 0 0 0 0 0 0 0 0 0 0 0 0 577 615 676 567 731 724 712 744 681 604 521 427 456 321 202 161 43 0 0 0 0 0 0 0 0 1 4 4 6 3 1 0 0
0 0 0 0 0 0 0 0 0 0 0 0 0 0 0 0 457 608 582 604 698 700 581 597 669 594 559 392 377 255 129 52 0 0 0 0 0 0 0 0 0 1 5 5 3 0 0 0 0
0 0 0 0 0 0 0 0 0 0 0 0 0 0 0 0 267 504 536 572 525 541 521 402 531 593 581 458 293 233 108 6 0 0 0 0 0 0 0 0 0 0 0 0 0 0 0 0 0
0 0 0 0 0 0 0 0 0 0 0 0 0 0 0 4 32 330 362 487 439 433 468 495 508 511 542 529 357 250 151 36 0 0 0 0 0 0 0 0 0 0 0 0 0 0 0 0 0
0 0 0 0 0 0 0 0 0 0 0 0 0 0 0 0 0 129 281 370 481 412 437 522 636 704 699 597 400 299 205 95 23 2 0 0 0 0 0 0 0 0 0 0 0 0 0 0 0
0 0 0 0 0 0 0 0 0 0 0 0 0 0 0 0 0 8 163 297 417 458 411 460 487 600 639 666 486 433 271 168 84 61 3 0 0 0 0 0 0 0 0 0 0 0 0 0 0
0 0 0 0 0 0 0 0 0 0 0 0 0 0 0 0 0 0 34 158 239 339 357 486 389 415 710 743 664 399 359 265 178 94 22 17 2 0 0 0 0 0 0 0 0 0 0 1 0
0 0 0 0 0 0 0 0 0 0 0 0 0 0 0 0 0 0 0 2 99 280 444 532 465 396 414 504 519 428 420 425 301 187 136 66 53 2 0 0 0 0 0 0 3 3 2 4 1
0 0 0 0 0 0 0 0 0 0 0 0 0 0 0 0 0 0 0 0 0 41 167 487 534 429 373 354 470 477 468 519 452 347 235 178 266 30 12 3 3 0 0 0 5 2 4 6 7
0 0 0 0 0 0 0 0 0 0 0 0 0 0 0 0 0 0 0 0 0 0 29 220 451 449 415 320 267 597 588 490 543 493 337 262 178 249 76 15 8 2 0 3 8 9 9 4 5
0 0 0 0 0 0 0 0 0 0 0 0 0 0 0 0 0 0 0 0 0 0 0 130 345 512 457 329 359 587 557 460 291 479 401 310 252 217 164 357 25 30 6 5 5 12 14 6 21
0 0 0 0 0 0 0 0 0 0 0 0 0 0 0 0 0 0 0 0 0 0 0 42 222 360 426 411 454 509 335 292 198 194 296 372 293 213 181 295 20 10 4 19 30 12 28 6 12
0 0 0 0 0 0 0 0 0 0 0 0 0 0 0 0 0 0 0 0 0 0 0 0 106 231 262 355 399 309 165 199 153 139 177 199 307 298 149 77 140 89 11 38 18 22 13 13 16
0 0 0 0 0 0 0 0 0 0 0 0 0 0 0 0 0 0 0 0 0 0 0 0 9 97 139 183 200 139 54 49 67 60 42 43 38 169 129 151 125 141 16 6 17 30 36 21 25
0 0 0 0 0 0 0 0 0 0 0 0 0 0 0 0 0 0 0 0 0 0 0 0 0 0 42 87 54 18 0 0 5 10 5 1 0 3 102 134 146 66 38 8 17 24 24 36 28
0 0 0 0 0 0 0 0 0 0 0 0 0 0 0 0 0 0 0 0 0 0 0 0 0 0 0 10 0 0 0 0 0 0 0 0 0 0 6 9 21 97 12 10 21 17 14 17 26
0 0 0 0 0 0 0 0 0 0 0 0 0 0 0 0 0 0 0 0 0 0 0 0 0 0 0 0 0 0 0 0 0 0 0 0 0 0 1 6 10 10 12 13 14 18 38 39 14
0 0 0 0 0 0 0 0 0 0 0 0 0 0 0 0 0 0 0 0 0 0 0 0 0 0 0 0 0 0 0 0 0 0 0 0 0 0 0 0 4 3 9 10 8 15 41 46 46
0 0 0 0 0 0 0 0 0 0 0 0 0 0 0 0 0 0 0 0 0 0 0 0 0 0 0 0 0 0 0 0 0 0 0 0 0 0 0 0 0 0 8 11 8 14 35 43 15
0 0 0 0 0 0 0 0 0 0 0 0 0 0 0 0 0 0 0 0 0 0 0 0 0 0 0 0 0 0 0 0 0 0 0 0 0 0 0 0 0 0 0 8 10 9 10 21 0
0 0 0 0 0 0 0 0 0 0 0 0 0 0 0 0 0 0 0 0 0 0 0 0 0 0 0 0 0 0 0 0 0 0 0 0 0 0 0 0 0 0 0 0 13 14 6 16 31
0 0 0 0 0 0 0 0 0 0 0 0 0 0 0 0 0 0 0 0 0 0 0 0 0 0 0 0 0 0 0 0 0 0 0 0 0 0 0 0 0 0 0 0 0 0 9 9 9
0 0 0 0 0 0 0 0 0 0 0 0 0 0 0 0 0 0 0 0 0 0 0 0 0 0 0 0 0 0 0 0 0 0 0 0 0 0 0 0 0 0 0 0 0 0 9 23 17

GFSSGP_con_mucape_078.txt.gz
CAPE
0 0 0 0 0 0 0 0 0 0 0 0 0 0 0 0 4 0 105 32 21 142 534 695 1097 1432 1045 741 541 361 111 45 22 44 142 123 475 287 85 2 9 9 8 11 19 24 23 31 28
0 0 0 0 0 0 0 0 0 0 0 0 0 0 0 17 107 116 17 40 60 149 559 683 991 1321 898 768 572 355 96 26 10 26 97 81 386 225 72 7 4 7 8 8 19 22 21 24 54
0 0 0 0 0 0 0 0 0 0 0 0 0 0 0 48 124 16 110 153 119 213 596 657 1057 1229 914 774 545 291 161 20 14 11 51 87 398 139 41 3 2 6 6 13 23 15 16 20 20
0 0 0 0 0 0 0 0 0 0 0 0 0 0 0 42 149 489 114 317 147 143 460 610 1117 1220 794 715 297 53 1 0 0 1 17 103 195 64 5 1 4 6 8 19 21 14 24 24 19
0 0 0 0 0 0 0 0 0 0 0 0 0 0 63 232 517 589 539 374 238 179 390 653 1031 1131 968 741 258 144 41 0 0 0 3 43 104 6 1 1 3 6 7 21 16 4 22 38 34
0 0 0 0 0 0 0 0 0 0 0 0 0 0 85 413 534 585 549 532 364 419 469 698 886 906 798 695 555 375 200 0 0 0 1 4 34 7 2 2 3 5 8 15 11 15 22 25 5
0 0 0 0 0 0 0 0 0 0 0 0 0 0 0 576 626 609 612 520 523 553 579 697 673 734 700 555 406 312 268 45 0 0 4 7 13 6 2 2 2 3 5 13 14 15 17 12 3
0 0 0 0 0 0 0 0 0 0 0 0 0 0 0 494 585 630 595 647 580 648 648 617 582 562 561 409 317 221 133 28 0 0 0 0 0 0 0 0 7 4 4 15 12 7 5 1 0
0 0 0 0 0 0 0 0 0 0 0 0 0 0 0 0 547 650 473 674 673 646 607 549 541 529 488 376 288 181 88 0 0 0 0 0 0 0 0 0 4 6 9 10 7 3 0 0 0
0 0 0 0 0 0 0 0 0 0 0 0 0 0 0 305 531 621 570 451 541 571 533 470 476 486 422 339 283 161 71 0 0 0 0 0 0 0 0 0 0 5 8 3 0 0 0 0 0
0 0 0 0 0 0 0 0 0 0 0 0 0 0 0 437 512 548 588 553 500 497 440 422 398 460 476 324 290 156 68 7 0 0 0 0 0 0 0 0 0 0 0 0 0 0 0 0 0
0 0 0 0 0 0 0 0 0 0 0 0 0 0 0 61 406 518 505 526 489 456 439 330 325 392 457 410 274 171 108 54 2 0 0 0 0 0 0 0 0 0 0 0 0 0 0 0 0
0 0 0 0 0 0 0 0 0 0 0 0 0 0 0 0 36 219 409 473 495 398 362 355 344 354 405 418 313 214 153 88 30 1 0 0 0 0 0 0 0 0 0 0 0 0 0 0 0
0 0 0 0 0 0 0 0 0 0 0 0 0 0 0 0 0 3 151 231 391 439 371 367 386 361 400 460 462 298 180 57 81 52 9 0 0 0 0 0 0 0 0 0 0 0 0 0 0
0 0 0 0 0 0 0 0 0 0 0 0 0 0 0 0 0 0 0 114 217 355 434 381 383 373 339 372 509 431 390 94 137 158 81 0 0 0 0 0 0 0 0 0 0 0 0 0 0
0 0 0 0 0 0 0 0 0 0 0 0 0 0 0 0 0 0 0 0 49 217 355 369 333 325 356 293 380 462 308 287 204 220 170 106 18 5 8 1 4 1 3 0 0 0 2 2 4
0 0 0 0 0 0 0 0 0 0 0 0 0 0 0 0 0 0 0 0 0 40 99 228 239 308 308 248 264 225 195 195 244 286 252 149 33 31 125 50 19 29 1 9 5 1 4 6 5
0 0 0 0 0 0 0 0 0 0 0 0 0 0 0 0 0 0 0 0 0 0 4 47 238 306 412 344 256 217 175 182 285 336 325 264 195 121 302 35 79 35 19 5 15 9 4 6 23
0 0 0 0 0 0 0 0 0 0 0 0 0 0 0 0 0 0 0 0 0 0 0 0 25 224 432 441 359 243 144 128 264 414 367 314 302 242 87 201 216 25 11 53 5 9 5 10 8
0 0 0 0 0 0 0 0 0 0 0 0 0 0 0 0 0 0 0 0 0 0 0 0 0 62 203 315 338 326 227 153 156 233 390 341 275 236 168 27 86 78 76 11 7 12 6 8 5
0 0 0 0 0 0 0 0 0 0 0 0 0 0 0 0 0 0 0 0 0 0 0 0 0 18 109 238 266 338 280 224 298 195 450 212 310 228 219 119 17 60 34 36 13 12 22 20 13
0 0 0 0 0 0 0 0 0 0 0 0 0 0 0 0 0 0 0 0 0 0 0 0 0 0 33 148 239 265 258 261 236 263 175 116 259 232 210 263 216 117 23 31 42 12 10 16 13
0 0 0 0 0 0 0 0 0 0 0 0 0 0 0 0 0 0 0 0 0 0 0 0 0 0 0 54 186 225 206 146 93 42 13 39 76 119 201 117 14 27 22 95 35 48 16 14 33
0 0 0 0 0 0 0 0 0 0 0 0 0 0 0 0 0 0 0 0 0 0 0 0 0 0 0 0 31 80 60 35 38 23 0 0 0 10 38 86 50 16 13 20 23 46 53 49 37
0 0 0 0 0 0 0 0 0 0 0 0 0 0 0 0 0 0 0 0 0 0 0 0 0 0 0 0 0 0 0 0 0 0 0 0 0 0 0 8 13 12 8 16 15 10 24 40 29
0 0 0 0 0 0 0 0 0 0 0 0 0 0 0 0 0 0 0 0 0 0 0 0 0 0 0 0 0 0 0 0 0 0 0 0 0 0 0 0 0 1 4 11 6 16 24 31 27
0 0 0 0 0 0 0 0 0 0 0 0 0 0 0 0 0 0 0 0 0 0 0 0 0 0 0 0 0 0 0 0 0 0 0 0 0 0 0 0 0 0 0 0 0 0 0 0 0
0 0 0 0 0 0 0 0 0 0 0 0 0 0 0 0 0 0 0 0 0 0 0 0 0 0 0 0 0 0 0 0 0 0 0 0 0 0 0 0 0 0 0 0 0 0 0 0 0
0 0 0 0 0 0 0 0 0 0 0 0 0 0 0 0 0 0 0 0 0 0 0 0 0 0 0 0 0 0 0 0 0 0 0 0 0 0 0 0 0 0 0 0 0 0 0 0 0
0 0 0 0 0 0 0 0 0 0 0 0 0 0 0 0 0 0 0 0 0 0 0 0 0 0 0 0 0 0 0 0 0 0 0 0 0 0 0 0 0 0 0 0 0 0 0 0 0

GFSSGP_con_mucape_084.txt.gz
CAPE
0 0 0 0 0 0 0 0 0 0 0 0 0 0 0 0 0 0 9 0 0 284 532 832 1093 780 435 354 214 308 355 333 264 755 614 269 67 13 9 6 14 43 13 14 19 9 18 14 16
0 0 0 0 0 0 0 0 0 0 0 0 0 0 0 0 26 25 0 0 17 283 560 757 964 939 568 467 481 387 173 184 112 705 577 136 54 9 10 5 10 40 19 7 24 25 19 12 16
0 0 0 0 0 0 0 0 0 0 0 0 0 0 0 0 1 0 0 18 136 352 574 779 880 896 653 685 434 145 173 285 205 430 353 147 25 8 9 4 13 32 21 17 42 12 23 13 15
0 0 0 0 0 0 0 0 0 0 0 0 0 0 0 0 2 0 0 53 217 336 492 856 921 839 497 411 170 81 63 95 147 303 390 192 29 7 5 5 13 29 29 20 9 31 16 15 29
0 0 0 0 0 0 0 0 0 0 0 0 0 0 0 0 53 22 30 68 232 352 405 828 887 844 713 392 140 97 67 50 123 300 286 104 4 5 3 4 10 6 16 10 47 38 34 42 39
0 0 0 0 0 0 0 0 0 0 0 0 0 0 0 28 234 94 46 55 215 308 451 792 698 601 527 396 253 194 132 124 129 207 177 18 32 7 4 7 11 6 6 29 91 60 33 21 25
0 0 0 0 0 0 0 0 0 0 0 0 0 0 0 113 344 68 48 44 179 291 447 710 533 420 296 208 171 154 114 95 156 169 42 4 4 12 6 11 12 6 2 12 27 16 11 8 7
0 0 0 0 0 0 0 0 0 0 0 0 0 0 0 42 283 225 64 26 120 276 399 565 494 325 222 163 109 39 0 0 57 6 5 1 2 4 2 1 12 12 8 6 11 10 3 1 0
0 0 0 0 0 0 0 0 0 0 0 0 0 0 0 91 225 275 279 127 116 231 343 506 436 334 222 134 77 8 0 0 0 0 0 0 0 0 0 0 7 12 7 27 15 4 3 1 0
0 0 0 0 0 0 0 0 0 0 0 0 0 0 0 167 247 274 316 351 302 272 319 442 584 542 273 168 87 17 0 0 0 0 0 0 0 0 0 0 1 5 2 22 4 3 0 0 0
0 0 0 0 0 0 0 0 0 0 0 0 0 0 0 204 263 269 295 350 339 357 372 501 738 770 339 172 96 48 0 0 0 0 0 0 0 0 0 0 0 0 2 3 1 0 0 0 0
0 0 0 0 0 0 0 0 0 0 0 0 0 0 0 194 231 265 270 271 292 346 610 487 535 764 703 256 112 48 7 0 0 0 0 0 0 0 0 0 0 0 0 0 0 0 0 0 0
0 0 0 0 0 0 0 0 0 0 0 0 0 0 0 131 168 198 263 283 257 275 458 606 671 673 661 388 391 106 49 10 0 0 0 0 0 0 0 0 0 0 0 0 0 0 0 0 0
0 0 0 0 0 0 0 0 0 0 0 0 0 0 0 10 36 124 191 267 259 226 272 360 615 624 634 669 519 321 241 67 4 0 0 0 0 0 0 0 0 0 0 0 0 0 0 0 0
0 0 0 0 0 0 0 0 0 0 0 0 0 0 0 0 0 4 102 210 287 266 224 279 312 482 455 503 490 414 444 8 17 3 3 2 2 3 1 0 0 0 0 0 1 1 0 0 0
0 0 0 0 0 0 0 0 0 0 0 0 0 0 0 0 0 0 0 29 179 259 278 275 248 272 249 288 304 306 210 192 63 11 13 7 5 45 7 8 10 7 2 6 4 5 5 1 3
0 0 0 0 0 0 0 0 0 0 0 0 0 0 0 0 0 0 0 0 0 21 115 200 262 280 252 215 152 147 125 106 12 3 7 20 9 6 9 27 14 17 5 10 9 10 5 8 5
0 0 0 0 0 0 0 0 0 0 0 0 0 0 0 0 0 0 0 0 0 0 0 0 44 205 248 254 191 151 151 111 42 6 0 5 33 66 13 11 7 11 9 17 7 1 4 5 19
0 0 0 0 0 0 0 0 0 0 0 0 0 0 0 0 0 0 0 0 0 0 0 0 0 0 74 219 262 229 219 199 79 45 21 0 0 0 23 52 23 13 8 22 24 23 5 7 11
0 0 0 0 0 0 0 0 0 0 0 0 0 0 0 0 0 0 0 0 0 0 0 0 0 0 7 77 182 262 240 177 152 120 90 56 26 24 0 75 156 125 20 11 23 18 23 20 45
0 0 0 0 0 0 0 0 0 0 0 0 0 0 0 0 0 0 0 0 0 0 0 0 0 0 0 32 79 171 220 198 179 155 153 151 128 130 105 40 188 183 106 39 30 38 50 56 13
0 0 0 0 0 0 0 0 0 0 0 0 0 0 0 0 0 0 0 0 0 0 0 0 0 0 0 0 26 72 54 94 100 132 139 177 219 341 255 144 21 189 229 125 113 121 38 53 31
0 0 0 0 0 0 0 0 0 0 0 0 0 0 0 0 0 0 0 0 0 0 0 0 0 0 0 0 0 31 49 51 75 91 103 146 191 246 304 245 80 55 43 28 43 81 70 63 39
0 0 0 0 0 0 0 0 0 0 0 0 0 0 0 0 0 0 0 0 0 0 0 0 0 0 0 0 0 3 7 25 64 82 82 110 140 169 208 224 139 96 62 46 21 35 72 76 74
0 0 0 0 0 0 0 0 0 0 0 0 0 0 0 0 0 0 0 0 0 0 0 0 0 0 0 0 0 1 7 13 20 36 50 75 104 139 154 142 126 59 48 43 39 25 51 75 48
0 0 0 0 0 0 0 0 0 0 0 0 0 0 0 0 0 0 0 0 0 0 0 0 0 0 0 0 0 0 0 0 2 2 3 6 6 3 6 26 46 52 48 45 31 14 29 33 21
0 0 0 0 0 0 0 0 0 0 0 0 0 0 0 0 0 0 0 0 0 0 0 0 0 0 0 0 0 0 0 0 0 0 0 0 0 0 0 0 0 0 0 11 40 32 28 35 33
0 0 0 0 0 0 0 0 0 0 0 0 0 0 0 0 0 0 0 0 0 0 0 0 0 0 0 0 0 0 0 0 0 0 0 0 0 0 0 0 0 0 0 0 2 0 9 13 7
0 0 0 0 0 0 0 0 0 0 0 0 0 0 0 0 0 0 0 0 0 0 0 0 0 0 0 0 0 0 0 0 0 0 0 0 0 0 0 0 0 0 0 0 0 0 0 0 0
0 0 0 0 0 0 0 0 0 0 0 0 0 0 0 0 0 0 0 0 0 0 0 0 0 0 0 0 0 0 0 0 0 0 0 0 0 0 0 0 0 0 0 0 0 0 0 0 0

GFSSGP_con_mucape_087.txt.gz
CAPE
0 0 0 0 0 0 0 0 0 0 0 0 0 0 0 0 0 0 0 0 28 378 747 1048 1043 832 596 587 697 831 846 702 904 688 295 113 25 10 7 17 17 54 21 18 16 14 15 17 19
0 0 0 0 0 0 0 0 0 0 0 0 0 0 0 0 0 0 0 0 165 394 702 847 750 811 654 509 592 613 653 625 836 604 146 75 9 9 11 18 42 27 37 37 9 12 16 12 20
0 0 0 0 0 0 0 0 0 0 0 0 0 0 0 0 0 0 0 0 212 420 684 765 778 870 599 699 580 483 517 554 779 456 146 17 8 7 7 15 45 19 33 32 18 13 15 13 16
0 0 0 0 0 0 0 0 0 0 0 0 0 0 0 0 0 0 0 47 251 453 697 683 863 821 619 594 292 216 414 508 456 583 139 25 2 4 4 22 39 39 30 35 26 12 10 18 23
0 0 0 0 0 0 0 0 0 0 0 0 0 0 0 0 0 0 8 95 249 423 710 676 702 726 631 486 184 192 293 354 483 509 119 6 1 2 3 12 17 9 20 31 27 25 24 34 35
0 0 0 0 0 0 0 0 0 0 0 0 0 0 0 31 0 0 3 117 205 333 678 698 564 523 466 369 286 224 266 319 477 324 74 1 3 2 3 8 12 5 80 45 37 34 29 38 39
0 0 0 0 0 0 0 0 0 0 0 0 0 0 0 32 42 1 3 74 195 273 600 632 539 367 172 94 69 82 117 179 282 272 7 5 3 9 11 12 12 4 21 38 22 21 26 36 35
0 0 0 0 0 0 0 0 0 0 0 0 0 0 0 18 161 6 3 45 134 256 415 455 381 277 202 139 0 0 0 44 49 2 0 0 3 2 0 1 13 13 23 38 33 9 13 7 3
0 0 0 0 0 0 0 0 0 0 0 0 0 0 0 24 127 3 0 10 92 156 338 719 293 206 117 82 0 0 0 0 0 0 0 0 0 0 0 0 8 4 6 28 16 5 3 0 0
0 0 0 0 0 0 0 0 0 0 0 0 0 0 0 28 132 20 0 1 52 138 295 524 613 164 99 45 6 0 0 0 0 0 0 0 0 0 0 0 3 4 3 25 9 0 0 0 0
0 0 0 0 0 0 0 0 0 0 0 0 0 0 0 14 125 94 99 24 16 47 178 407 596 453 125 54 8 0 0 0 0 0 0 0 0 0 0 0 0 0 1 1 1 0 0 0 0
0 0 0 0 0 0 0 0 0 0 0 0 0 0 0 1 66 101 84 86 99 98 103 235 475 467 485 156 80 0 0 0 0 0 0 0 0 0 0 0 0 0 0 0 0 0 0 0 0
0 0 0 0 0 0 0 0 0 0 0 0 0 0 0 0 9 67 81 109 178 206 195 211 392 467 511 625 137 108 0 0 0 0 0 0 0 0 0 0 0 0 0 0 0 0 0 0 0
0 0 0 0 0 0 0 0 0 0 0 0 0 0 0 0 0 35 72 117 142 195 188 346 587 448 531 555 419 152 29 0 0 0 0 0 0 0 0 0 0 0 0 0 0 0 0 0 0
0 0 0 0 0 0 0 0 0 0 0 0 0 0 0 0 0 0 17 74 107 130 143 121 284 427 568 417 323 440 312 0 0 0 0 0 0 2 2 1 0 0 0 0 4 0 0 0 0
0 0 0 0 0 0 0 0 0 0 0 0 0 0 0 0 0 0 0 0 33 99 138 133 132 243 384 450 473 360 320 348 142 5 0 5 7 4 8 16 6 7 6 2 2 4 4 3 3
0 0 0 0 0 0 0 0 0 0 0 0 0 0 0 0 0 0 0 0 0 25 105 160 164 154 288 349 505 431 454 315 196 7 0 0 2 4 6 10 17 11 4 4 12 5 3 11 2
0 0 0 0 0 0 0 0 0 0 0 0 0 0 0 0 0 0 0 0 0 0 2 43 126 150 174 235 371 387 392 337 370 57 0 0 0 0 7 4 14 25 18 7 5 1 8 3 4
0 0 0 0 0 0 0 0 0 0 0 0 0 0 0 0 0 0 0 0 0 0 0 0 0 7 58 126 322 571 517 428 420 270 54 25 0 0 0 0 6 10 29 27 8 5 3 14 3
0 0 0 0 0 0 0 0 0 0 0 0 0 0 0 0 0 0 0 0 0 0 0 0 0 0 0 24 73 166 244 273 463 193 304 83 51 31 37 35 28 18 24 41 49 38 32 14 21
0 0 0 0 0 0 0 0 0 0 0 0 0 0 0 0 0 0 0 0 0 0 0 0 0 0 0 0 16 87 134 118 195 320 386 402 193 103 93 110 114 95 59 31 65 93 77 63 17
0 0 0 0 0 0 0 0 0 0 0 0 0 0 0 0 0 0 0 0 0 0 0 0 0 0 0 0 6 21 35 81 89 106 183 320 320 96 348 230 129 76 90 105 58 66 71 61 7
0 0 0 0 0 0 0 0 0 0 0 0 0 0 0 0 0 0 0 0 0 0 0 0 0 0 0 0 5 7 20 36 58 74 63 40 26 132 89 85 385 208 213 122 132 72 56 37 30
0 0 0 0 0 0 0 0 0 0 0 0 0 0 0 0 0 0 0 0 0 0 0 0 0 0 0 0 0 6 5 4 13 29 30 34 41 53 46 87 68 157 121 99 84 89 74 67 68
0 0 0 0 0 0 0 0 0 0 0 0 0 0 0 0 0 0 0 0 0 0 0 0 0 0 0 0 0 1 5 7 11 10 9 78 7 34 75 13 38 34 48 42 41 39 9 18 53
0 0 0 0 0 0 0 0 0 0 0 0 0 0 0 0 0 0 0 0 0 0 0 0 0 0 0 0 0 0 0 0 0 2 2 0 4 4 3 5 7 7 7 23 23 24 12 12 16
0 0 0 0 0 0 0 0 0 0 0 0 0 0 0 0 0 0 0 0 0 0 0 0 0 0 0 0 0 0 0 0 0 0 0 0 0 0 0 0 0 0 0 0 0 1 5 29 16
0 0 0 0 0 0 0 0 0 0 0 0 0 0 0 0 0 0 0 0 0 0 0 0 0 0 0 0 0 0 0 0 0 0 0 0 0 0 0 0 0 0 0 0 0 8 0 7 5
0 0 0 0 0 0 0 0 0 0 0 0 0 0 0 0 0 0 0 0 0 0 0 0 0 0 0 0 0 0 0 0 0 0 0 0 0 0 0 0 0 0 0 0 0 0 0 0 0
0 0 0 0 0 0 0 0 0 0 0 0 0 0 0 0 0 0 0 0 0 0 0 0 0 0 0 0 0 0 0 0 0 0 0 0 0 0 0 0 0 0 0 0 0 0 0 0 0